STARLINK-5006, 55422

Orbit data source: Space-Track

STARLINK-5006, 55422 is a payload satellite owned by SpaceX/Seattle (US) in LEO that was launched on Tue, 31 Jan 2023 UTC via an FALCON 9 launch vehicle from the Air Force Western Test Range (AFWTR). Payload-class satellites include a variety of spacecraft equipped with specific instruments for various scientific and technological missions. These include communications satellites like Starlink; space stations such as the ISS; scientific satellites like the Hubble; Earth observation satellites from companies like Planet Labs, Umbra, and HawkEye 360; GPS; miniature CubeSats for education and research; and military/defense satellites.

Loading next visibility...
Identifier
55422, 2023-014AH
Orbit
LEO
Country
Flag of USUS
Related business
Manufacturer
SpaceX/Seattle
Mission
Operational Commercial Communications
Bus & Motor
STARLINK, Unknown motor
Mass
305 kg wet, ~290 kg dry
Launch date (UTC)
2023-01-31 (3 years ago)
Launch vehicle
FALCON 9
Launch site
Air Force Western Test Range (AFWTR)
Object type
Payload
Rocket body
Debris
Shape & HBR
Box + 1 Pan, 10.1 m
Radar Cross Section
13.562 m², Large (>1 m²)

Expand to show TLE details & history
Last TLE update: 2 days ago

TLE from 2 days ago
0 STARLINK-5006
1 55422U 23014AH  26171.35289591  .00000162  00000-0  21390-4 0  9995
2 55422  69.9994 185.4578 0004128 262.3642  97.7048 14.98334125186947
Epoch: 2026-06-20T08:28Z
TLE epoch observation values (Epoch: 2026-06-20T08:28:10.206Z)
Latitude
-0.00006°
Longitude
149.84651°
Altitude
574.853 km
Speed
7.573 km/s
True Right ascension
12h 21m 49s
True Declination
0° 00' 00"
Sunlit
Object was in daylight at epoch
Visualization orbit readout
Latitude
Unknown
Longitude
Unknown
Altitude
Unknown
Speed
Unknown
Apparent Right ascension
Unknown
Apparent Declination
Unknown
Sunlit
N/A
Visualization observer readout
Local Sidereal Time
21:23:50
Azimuth
Unknown
Elevation
Unknown
Doppler factor
Unknown
Orbital elements
Apogee altitude
572.86 km
Perigee altitude
567.123 km
Semi-major axis
6,948.128 km
Eccentricity
0.00041
Inclination
69.9994°
RAAN
185.4578°
Arg. of periapsis
262.3642°
True anomaly
97.75167°
Mean anomaly
97.7048°
Eccentric anomaly
97.72824°
Mean motion
3.7475 °/min
Orbital period
96.06 mins
BSTAR
0.00002139
Loading maneuver chart data...
Computing Atmospheric mass density...

Documentation

Showing up to 5 results
|